This is the latest recevied weather packets stored in our database for station/object KA2FNK. If no packets are shown the sender has not sent any weather packets the latest 1 day(s).
| Time | Temp. | Humidity | Pressure | Rain* | Wind** | Luminosity | Snow |
|---|---|---|---|---|---|---|---|
| 1778041289 | 8.89° C | 70% | 1014.6 hPa | 0.51 mm | - | - | - |
| 1778040988 | 9.44° C | 67% | 1014.5 hPa | 0.25 mm | - | - | - |
| 1778040687 | 9.44° C | 72% | 1014.3 hPa | 0 mm | - | - | - |
| 1778040386 | 9.44° C | 69% | 1014.3 hPa | 0 mm | - | - | - |
| 1778040085 | 10° C | 78% | 1013.9 hPa | 0 mm | - | - | - |
| 1778039784 | 10° C | 77% | 1013.7 hPa | 0 mm | - | - | - |
| 1778039483 | 10° C | 77% | 1013.7 hPa | 0 mm | - | - | - |
| 1778039182 | 10° C | 78% | 1013.7 hPa | 0 mm | - | - | - |
| 1778038881 | 10° C | 78% | 1013.5 hPa | 0 mm | - | - | - |
| 1778038580 | 10° C | 79% | 1013.3 hPa | 0 mm | - | - | - |
| 1778038279 | 10° C | 80% | 1013.1 hPa | 0 mm | - | - | - |
| 1778037978 | 10° C | 80% | 1013.1 hPa | 0 mm | - | - | - |
| 1778037677 | 10° C | 81% | 1013 hPa | 0 mm | - | - | - |
| 1778037376 | 10° C | 81% | 1012.9 hPa | 0 mm | - | - | - |
| 1778037075 | 10° C | 82% | 1012.9 hPa | 0 mm | - | - | - |
| 1778036774 | 10° C | 82% | 1012.9 hPa | 0 mm | - | - | - |
| 1778036473 | 10° C | 82% | 1012.8 hPa | 0 mm | - | - | - |
| 1778036172 | 10° C | 83% | 1012.6 hPa | 0 mm | - | - | - |
| 1778035871 | 9.44° C | 84% | 1012.5 hPa | 0 mm | - | - | - |
| 1778035570 | 9.44° C | 88% | 1012.4 hPa | 0 mm | - | - | - |
| 1778035269 | 10° C | 93% | 1012.4 hPa | 0 mm | - | - | - |
| 1778034968 | 10° C | 94% | 1012.5 hPa | 0 mm | - | - | - |
| 1778034667 | 10° C | 94% | 1012.2 hPa | 0 mm | - | - | - |
| 1778034366 | 10° C | 94% | 1012.2 hPa | 0 mm | - | - | - |
| 1778034065 | 10° C | 94% | 1012.2 hPa | 0 mm | - | - | - |
* Rain latest hour (hover to see other rain measurements)
** Current wind speed in m/s (hover to see current wind gust speed)